Location: Newark
(44.2003°N, 3.2583°E)
Time: 18:48:48
(UTC+00:00)

SR - Pass Details

Date: 30 October 2019
Orbit: 574 x 882 km, 66.7° (Epoch: 11 November)

Event Time Altitude Azimuth Distance (km) Brightness Sun altitude
Rises 05:36:06 0° 316° (NW) 3,482 - -8.5°
Exits shadow 05:38:01 - 308° (NW) 2,866 ? -8.2°
Reaches altitude 10° 05:39:07 10° 302° (WNW) 2,546 ? -8.0°
Maximum altitude 05:43:32 22° 254° (WSW) 1,812 ? -7.2°
Drops below altitude 10° 05:47:54 10° 205° (SSW) 2,492 ? -6.5°
Sets 05:50:50 0° 191° (S) 3,390 ? -6.0°
